• Join FlightAware (Why Join?)
  • Login
  • US Flag 
09:58PM EDT


 

Airport Tracker/Info


-or-


 

Live Flight TrackerFlight Track Log ✈ SWA714 ✈ 07-Apr-2013 ✈ KSAT - KDAL

Flight Track Log - Related Links

Times and Time Zones

All times are in EDT time to prevent confusion due to time zone crossing. See the SWA714 flight status page for this flight to view local times or setup timezone preferences in your user account.

Time Position Orientation Groundspeed Altitude Reporting Facility
EDT Latitude Longitude Course Direction KTS MPH feet Rate Location/Type
04:05PM 29.5503 -98.4439 37° Northeast 192 221 1,600  Level Houston Center
04:06PM 29.6028 -98.3989 37° Northeast 248 285 4,300 2,160 Climbing Houston Center
04:07PM 29.6353 -98.3825 24° Northeast 265 305 5,000 660 Climbing Houston Center
04:07PM 29.6667 -98.3625 29° Northeast 300 345 4,900  Descending Houston Center
04:08PM 29.6714 -98.3183 83° East 262 302 5,000 60 Climbing Houston Center
04:08PM 29.6717 -98.2800 90° East 259 298 5,000 360 Level Houston Center
04:09PM 29.6872 -98.2336 69° East 272 313 5,400 840 Climbing Houston Center
04:10PM 29.7642 -98.2475 351° North 291 335 6,400 2,160 Climbing Houston Center
04:11PM 29.8475 -98.2825 340° North 296 341 9,900 2,520 Climbing Houston Center
04:12PM 29.9314 -98.3181 340° North 322 371 11,700 2,460 Climbing Houston Center
04:13PM 30.0328 -98.3606 340° North 360 414 15,000 2,760 Climbing Houston Center
04:14PM 30.1267 -98.3897 345° North 358 412 17,500 2,220 Climbing Houston Center
04:15PM 30.2414 -98.3728 North 384 442 19,600 2,040 Climbing Houston Center
04:16PM 30.3467 -98.3583 North 410 472 21,800 2,100 Climbing Houston Center
04:17PM 30.4611 -98.3417 North 410 472 24,000 1,860 Climbing Houston Center
04:18PM 30.5742 -98.3250 North 406 467 25,700 1,440 Climbing Houston Center
04:19PM 30.6933 -98.3069 North 419 482 27,000 600 Climbing Houston Center
04:20PM 30.8356 -98.2858 North 433 498 27,000  Level Houston Center
04:21PM 30.9369 -98.2731 North 430 495 27,000  Level Fort Worth Center
04:22PM 31.0581 -98.2547 North 430 495 27,000  Level Fort Worth Center
04:23PM 31.1625 -98.2242 14° North 430 495 27,000  Level Fort Worth Center
04:24PM 31.2839 -98.1814 17° North 435 501 27,000  Level Fort Worth Center
04:25PM 31.4033 -98.1411 16° North 442 509 27,000  Level Fort Worth Center
04:26PM 31.5244 -98.0981 17° North 441 507 27,000 -480 Level Fort Worth Center
04:27PM 31.6375 -98.0428 23° Northeast 441 507 26,100 -1,020 Descending Fort Worth Center
04:28PM 31.7589 -97.9778 24° Northeast 441 507 25,000 -1,140 Descending Fort Worth Center
04:29PM 31.8658 -97.9197 25° Northeast 430 495 23,900 -1,500 Descending Fort Worth Center
04:30PM 31.9619 -97.8689 24° Northeast 418 481 22,100 -2,100 Descending Fort Worth Center
04:31PM 32.0769 -97.8056 25° Northeast 418 481 19,700 -2,220 Descending Fort Worth Center
04:32PM 32.1775 -97.7522 24° Northeast 407 468 17,700 -2,100 Descending Fort Worth Center
04:33PM 32.2694 -97.6836 32° Northeast 386 444 15,600 -2,280 Descending Fort Worth Center
04:34PM 32.3531 -97.6100 37° Northeast 375 432 13,200 -2,220 Descending Fort Worth Center
04:35PM 32.4344 -97.5364 37° Northeast 375 432 11,200 -1,140 Descending Fort Worth Center
04:36PM 32.5078 -97.4628 40° Northeast 356 410 11,000 -120 Descending Fort Worth Center
04:37PM 32.5703 -97.3864 46° Northeast 316 364 11,000  Level Fort Worth Center
04:38PM 32.6308 -97.3147 45° Northeast 306 352 11,000  Level Fort Worth Center
04:39PM 32.6933 -97.2381 46° Northeast 306 352 11,000  Level Fort Worth Center
04:40PM 32.7539 -97.1714 43° Northeast 301 346 11,000 -660 Level Fort Worth Center
04:41PM 32.8228 -97.1736 358° North 263 303 9,800 -1,440 Descending Fort Worth Center
04:42PM 32.8936 -97.1636 North 257 296 8,200 -1,740 Descending Fort Worth Center
04:43PM 32.9167 -97.1000 67° East 280 322 6,900 -1,500 Descending Dallas / Fort Worth TRACON
04:44PM 32.9167 -97.0167 90° East 272 313 5,800 -960 Descending Dallas / Fort Worth TRACON
04:45PM 32.9167 -96.9167 90° East 245 282 5,000 -900 Descending Dallas / Fort Worth TRACON
04:46PM 32.9333 -96.8500 73° East 217 250 4,000 -1,140 Descending Dallas / Fort Worth TRACON
04:47PM 32.9000 -96.8667 203° Southwest 184 212 2,900 -1,020 Descending Dallas / Fort Worth TRACON
04:48PM 32.9167 -96.9167 292° West 179 206 2,000 -720 Descending Dallas / Fort Worth TRACON
04:49PM 32.8833 -96.9000 157° South 140 161 1,500 -540 Descending Dallas / Fort Worth TRACON
04:51PM 32.8471 -96.8518 115° Southeast  Level Estimated